Location: Praha
(50.0830°N, 14.4670°E)
Time: 20:50:59
(UTC+02:00)

ISS - Pass Details

Date: 09 July 2019
Orbit: 409 x 418 km, 51.6° (Epoch: 20 July)

Event Time Altitude Azimuth Distance (km) Brightness Sun altitude
Exits shadow 04:02:51 - 265° (W) 2,033 -0.7 -7.8°
Reaches altitude 10° 04:04:12 10° 268° (W) 1,479 -1.4 -7.6°
Maximum altitude 04:07:30 69° 351° (N) 442 -3.5 -7.3°
Drops below altitude 10° 04:10:49 10° 77° (ENE) 1,478 0.0 -6.9°
Sets 04:12:55 0° 80° (E) 2,339 1.0 -6.7°
